"read_dt","SO2 (ppb)","flags","PMT voltage (V)","lamp voltage (V)","lamp intensity (Hz)","internal temp (C)","react chamber temp (C)","sample flow (l/min)","pres (mmHg)","SO2 bkg (ppb)","SO2 coefficient"
2017-05-26 00:00:00,1834E-3,5C000400,-0724,0837,12129,028.4,045.5,0.220,745.8,01.17,0.508
2017-05-26 00:01:00,1850E-3,5C000400,-0724,0835,12182,028.4,045.5,0.220,745.8,01.17,0.508
2017-05-26 00:02:00,1847E-3,5C000400,-0724,0837,12115,028.4,045.5,0.220,745.8,01.17,0.508
2017-05-26 00:03:00,1858E-3,5C000400,-0724,0837,12103,028.4,045.5,0.220,745.8,01.17,0.508
2017-05-26 00:04:00,1814E-3,5C000400,-0724,0836,11040,028.4,045.5,0.220,745.8,01.17,0.508
2017-05-26 00:05:00,1859E-3,5C000400,-0724,0836,11888,028.4,045.5,0.220,745.8,01.17,0.508
2017-05-26 00:06:00,1827E-3,5C000400,-0724,0836,12085,028.5,045.5,0.219,745.8,01.17,0.508
2017-05-26 00:07:00,1763E-3,5C000400,-0724,0835,12082,028.5,045.5,0.220,745.8,01.17,0.508
2017-05-26 00:08:00,1895E-3,5C000400,-0724,0836,12108,028.5,045.5,0.220,745.8,01.17,0.508
2017-05-26 00:09:00,1811E-3,5C000400,-0724,0836,12139,028.5,045.5,0.220,745.8,01.17,0.508
2017-05-26 00:10:00,1915E-3,5C000400,-0724,0836,12163,028.5,045.5,0.220,745.8,01.17,0.508
2017-05-26 00:11:00,1816E-3,5C000400,-0724,0835,11000,028.5,045.5,0.220,745.8,01.17,0.508
2017-05-26 00:12:00,1733E-3,5C000400,-0724,0838,12144,028.5,045.5,0.220,745.8,01.17,0.508
2017-05-26 00:13:00,1771E-3,5C000400,-0724,0835,11999,028.5,045.5,0.220,745.8,01.17,0.508
2017-05-26 00:14:00,1870E-3,5C000400,-0724,0835,12121,028.5,045.5,0.220,745.9,01.17,0.508
2017-05-26 00:15:00,1801E-3,5C000400,-0724,0837,12070,028.5,045.5,0.220,745.9,01.17,0.508
2017-05-26 00:16:00,1953E-3,5C000400,-0724,0835,12115,028.5,045.5,0.220,745.9,01.17,0.508
2017-05-26 00:17:00,1775E-3,5C000400,-0724,0835,12019,028.5,045.5,0.219,746.0,01.17,0.508
2017-05-26 00:18:00,1944E-3,5C000400,-0724,0836,12024,028.6,045.5,0.220,746.0,01.17,0.508
2017-05-26 00:19:00,1867E-3,5C000400,-0724,0835,12130,028.6,045.5,0.220,746.0,01.17,0.508
2017-05-26 00:20:00,1942E-3,5C000410,-0724,0837,9711,028.5,045.5,0.219,746.0,01.17,0.508
2017-05-26 00:21:00,1817E-3,5C000400,-0724,0837,12230,028.6,045.5,0.220,746.0,01.17,0.508
2017-05-26 00:22:00,1864E-3,5C000400,-0724,0834,12075,028.6,045.5,0.220,746.0,01.17,0.508
2017-05-26 00:23:00,1851E-3,5C000400,-0724,0835,11880,028.6,045.5,0.219,746.0,01.17,0.508
2017-05-26 00:24:00,1818E-3,5C000400,-0724,0835,12004,028.6,045.5,0.220,746.0,01.17,0.508
2017-05-26 00:25:00,2041E-3,5C000400,-0724,0835,12051,028.6,045.5,0.219,746.0,01.17,0.508
2017-05-26 00:26:00,1883E-3,5C000400,-0724,0835,12125,028.6,045.5,0.219,746.0,01.17,0.508
2017-05-26 00:27:00,1864E-3,5C000400,-0724,0835,12027,028.6,045.5,0.220,746.1,01.17,0.508
2017-05-26 00:28:00,1902E-3,5C000400,-0724,0835,12042,028.6,045.5,0.219,746.1,01.17,0.508
2017-05-26 00:29:00,1883E-3,5C000400,-0724,0836,12210,028.6,045.5,0.219,746.1,01.17,0.508
2017-05-26 00:30:00,1786E-3,5C000400,-0724,0835,12002,028.6,045.5,0.220,746.1,01.17,0.508
2017-05-26 00:31:00,1856E-3,5C000400,-0724,0836,12153,028.6,045.5,0.219,746.1,01.17,0.508
2017-05-26 00:32:00,1837E-3,5C000400,-0724,0835,12063,028.6,045.5,0.219,746.1,01.17,0.508
2017-05-26 00:33:00,1852E-3,5C000400,-0724,0834,12165,028.6,045.5,0.219,746.1,01.17,0.508
2017-05-26 00:34:00,1921E-3,5C000400,-0724,0836,12176,028.7,045.5,0.219,746.1,01.17,0.508
2017-05-26 00:35:00,1878E-3,5C000400,-0724,0835,12073,028.7,045.5,0.219,746.1,01.17,0.508
2017-05-26 00:36:00,2006E-3,5C000400,-0724,0836,10890,028.7,045.5,0.219,746.1,01.17,0.508
2017-05-26 00:37:00,1912E-3,5C000400,-0724,0835,12194,028.7,045.5,0.219,746.1,01.17,0.508
2017-05-26 00:38:00,1944E-3,5C000400,-0724,0835,11920,028.7,045.5,0.219,746.1,01.17,0.508
2017-05-26 00:39:00,1858E-3,5C000400,-0724,0834,12109,028.7,045.5,0.219,746.1,01.17,0.508
2017-05-26 00:40:00,1839E-3,5C000400,-0724,0835,12072,028.7,045.5,0.219,746.1,01.17,0.508
2017-05-26 00:41:00,2002E-3,5C000400,-0724,0835,12173,028.7,045.5,0.219,746.1,01.17,0.508
2017-05-26 00:42:00,1988E-3,5C000400,-0724,0835,12119,028.7,045.5,0.219,746.1,01.17,0.508
2017-05-26 00:43:00,1968E-3,5C000400,-0724,0836,12010,028.8,045.5,0.219,746.1,01.17,0.508
2017-05-26 00:44:00,1996E-3,5C000400,-0724,0837,12164,028.8,045.5,0.219,746.1,01.17,0.508
2017-05-26 00:45:00,1927E-3,5C000400,-0724,0835,12234,028.8,045.5,0.219,746.1,01.17,0.508
2017-05-26 00:46:00,1906E-3,5C000400,-0724,0835,12107,028.8,045.5,0.219,746.1,01.17,0.508
2017-05-26 00:47:00,1951E-3,5C000400,-0724,0834,12095,028.8,045.5,0.219,746.1,01.17,0.508
2017-05-26 00:48:00,1952E-3,5C000400,-0724,0835,12260,028.8,045.5,0.219,746.1,01.17,0.508
2017-05-26 00:49:00,1862E-3,5C000400,-0724,0835,12195,028.8,045.5,0.219,746.1,01.17,0.508
2017-05-26 00:50:00,1795E-3,5C000400,-0724,0835,12140,028.8,045.5,0.219,746.1,01.17,0.508
2017-05-26 00:51:00,1905E-3,5C000400,-0724,0835,12197,028.8,045.5,0.219,746.1,01.17,0.508
2017-05-26 00:52:00,1859E-3,5C000400,-0724,0836,12106,028.8,045.5,0.219,746.1,01.17,0.508
2017-05-26 00:53:00,1870E-3,5C000400,-0724,0835,12003,028.9,045.5,0.219,746.1,01.17,0.508
2017-05-26 00:54:00,1823E-3,5C000400,-0724,0836,12084,028.8,045.5,0.219,746.2,01.17,0.508
2017-05-26 00:55:00,1975E-3,5C000400,-0724,0836,12091,028.9,045.5,0.219,746.2,01.17,0.508
2017-05-26 00:56:00,1773E-3,5C000400,-0724,0836,12104,028.9,045.5,0.219,746.2,01.17,0.508
2017-05-26 00:57:00,2086E-3,5C000400,-0724,0835,12101,028.9,045.5,0.219,746.2,01.17,0.508
2017-05-26 00:58:00,2029E-3,5C000400,-0724,0835,11861,028.9,045.5,0.219,746.2,01.17,0.508
2017-05-26 00:59:00,1931E-3,5C000400,-0724,0835,12017,028.9,045.5,0.219,746.2,01.17,0.508
2017-05-26 01:00:00,1752E-3,5C000400,-0724,0836,12057,028.9,045.5,0.219,746.2,01.17,0.508
2017-05-26 01:01:00,1943E-3,5C000400,-0724,0835,12075,028.9,045.5,0.219,746.2,01.17,0.508
2017-05-26 01:02:00,1881E-3,5C000400,-0724,0835,10980,028.9,045.5,0.219,746.2,01.17,0.508
2017-05-26 01:03:00,1846E-3,5C000400,-0724,0836,12139,029.0,045.5,0.219,746.2,01.17,0.508
2017-05-26 01:04:00,1953E-3,5C000400,-0724,0835,11967,028.9,045.5,0.219,746.2,01.17,0.508
2017-05-26 01:05:00,1794E-3,5C000400,-0724,0835,12079,028.9,045.5,0.219,746.3,01.17,0.508
2017-05-26 01:06:00,1876E-3,5C000400,-0724,0836,12186,029.0,045.5,0.219,746.3,01.17,0.508
2017-05-26 01:07:00,1887E-3,5C000400,-0724,0835,12083,029.0,045.5,0.219,746.3,01.17,0.508
2017-05-26 01:08:00,1854E-3,5C000400,-0724,0836,12051,029.0,045.5,0.218,746.3,01.17,0.508
2017-05-26 01:09:00,1894E-3,5C000400,-0724,0835,12175,029.0,045.5,0.219,746.3,01.17,0.508
2017-05-26 01:10:00,1798E-3,5C000400,-0724,0834,12088,029.0,045.5,0.219,746.2,01.17,0.508
2017-05-26 01:11:00,2001E-3,5C000400,-0724,0835,12187,029.0,045.5,0.219,746.3,01.17,0.508
2017-05-26 01:12:00,1814E-3,5C000400,-0724,0836,12351,029.0,045.5,0.219,746.3,01.17,0.508
2017-05-26 01:13:00,1806E-3,5C000400,-0724,0836,11911,029.0,045.5,0.219,746.2,01.17,0.508
2017-05-26 01:14:00,1896E-3,5C000400,-0724,0836,12292,029.0,045.5,0.219,746.3,01.17,0.508
2017-05-26 01:15:00,1861E-3,5C000400,-0724,0836,12134,029.0,045.5,0.218,746.3,01.17,0.508
2017-05-26 01:16:00,1944E-3,5C000400,-0724,0836,10976,029.1,045.5,0.218,746.3,01.17,0.508
2017-05-26 01:17:00,1894E-3,5C000400,-0724,0835,12172,029.1,045.5,0.219,746.3,01.17,0.508
2017-05-26 01:18:00,1897E-3,5C000400,-0724,0835,12138,029.1,045.5,0.219,746.3,01.17,0.508
2017-05-26 01:19:00,1856E-3,5C000400,-0724,0836,12261,029.1,045.5,0.218,746.3,01.17,0.508
2017-05-26 01:20:00,1877E-3,5C000400,-0724,0835,11063,029.1,045.5,0.219,746.3,01.17,0.508
2017-05-26 01:21:00,1810E-3,5C000400,-0724,0837,12134,029.1,045.5,0.219,746.3,01.17,0.508
2017-05-26 01:22:00,1811E-3,5C000400,-0724,0835,12150,029.1,045.5,0.218,746.3,01.17,0.508
2017-05-26 01:23:00,1874E-3,5C000400,-0724,0836,12148,029.1,045.5,0.218,746.3,01.17,0.508
2017-05-26 01:24:00,1776E-3,5C000400,-0724,0835,12066,029.1,045.5,0.219,746.3,01.17,0.508
2017-05-26 01:25:00,1864E-3,5C000400,-0724,0836,12092,029.1,045.5,0.218,746.3,01.17,0.508
2017-05-26 01:26:00,1698E-3,5C000400,-0724,0835,12181,029.1,045.5,0.218,746.3,01.17,0.508
2017-05-26 01:27:00,1965E-3,5C000400,-0724,0835,12226,029.2,045.5,0.218,746.3,01.17,0.508
2017-05-26 01:28:00,1901E-3,5C000400,-0724,0835,12049,029.2,045.5,0.218,746.3,01.17,0.508
2017-05-26 01:29:00,1944E-3,5C000400,-0724,0837,12065,029.2,045.5,0.218,746.3,01.17,0.508
2017-05-26 01:30:00,1882E-3,5C000400,-0724,0835,12156,029.2,045.5,0.218,746.3,01.17,0.508
2017-05-26 01:31:00,1822E-3,5C000400,-0724,0835,12123,029.2,045.5,0.218,746.3,01.17,0.508
2017-05-26 01:32:00,1856E-3,5C000400,-0724,0835,12220,029.2,045.5,0.218,746.3,01.17,0.508
2017-05-26 01:33:00,1967E-3,5C000400,-0724,0835,12053,029.2,045.5,0.218,746.3,01.17,0.508
2017-05-26 01:34:00,1883E-3,5C000400,-0724,0836,12132,029.2,045.5,0.218,746.3,01.17,0.508
2017-05-26 01:35:00,1812E-3,5C000400,-0724,0836,12138,029.2,045.5,0.218,746.3,01.17,0.508
2017-05-26 01:36:00,1793E-3,5C000400,-0724,0835,12196,029.2,045.5,0.218,746.3,01.17,0.508
2017-05-26 01:37:00,1996E-3,5C000400,-0724,0835,12174,029.2,045.5,0.218,746.3,01.17,0.508
2017-05-26 01:38:00,1912E-3,5C000400,-0724,0836,12097,029.3,045.5,0.218,746.3,01.17,0.508
2017-05-26 01:39:00,1968E-3,5C000400,-0724,0836,12185,029.2,045.5,0.218,746.3,01.17,0.508
2017-05-26 01:40:00,1919E-3,5C000400,-0724,0836,11959,029.3,045.5,0.218,746.3,01.17,0.508
2017-05-26 01:41:00,1820E-3,5C000400,-0724,0836,12254,029.3,045.5,0.218,746.3,01.17,0.508
2017-05-26 01:42:00,1740E-3,5C000400,-0724,0836,12142,029.3,045.5,0.218,746.3,01.17,0.508
2017-05-26 01:43:00,2023E-3,5C000400,-0724,0835,12077,029.3,045.5,0.218,746.3,01.17,0.508
2017-05-26 01:44:00,1925E-3,5C000400,-0724,0836,12127,029.3,045.5,0.218,746.3,01.17,0.508
2017-05-26 01:45:00,1841E-3,5C000400,-0724,0836,11974,029.3,045.5,0.218,746.3,01.17,0.508
2017-05-26 01:46:00,1876E-3,5C000400,-0724,0835,12221,029.3,045.5,0.218,746.3,01.17,0.508
2017-05-26 01:47:00,1909E-3,5C000400,-0724,0836,12039,029.3,045.5,0.218,746.3,01.17,0.508
2017-05-26 01:48:00,1909E-3,5C000400,-0724,0836,11928,029.3,045.5,0.218,746.3,01.17,0.508
2017-05-26 01:49:00,1946E-3,5C000400,-0724,0835,12247,029.3,045.5,0.218,746.3,01.17,0.508
2017-05-26 01:50:00,1923E-3,5C000400,-0724,0835,12091,029.3,045.5,0.218,746.3,01.17,0.508
2017-05-26 01:51:00,2111E-3,5C000400,-0724,0835,12082,029.4,045.5,0.218,746.3,01.17,0.508
2017-05-26 01:52:00,1898E-3,5C000400,-0724,0836,12018,029.4,045.5,0.218,746.3,01.17,0.508
2017-05-26 01:53:00,1929E-3,5C000400,-0724,0837,12145,029.3,045.5,0.218,746.3,01.17,0.508
2017-05-26 01:54:00,1853E-3,5C000400,-0724,0835,12095,029.4,045.5,0.217,746.3,01.17,0.508
2017-05-26 01:55:00,1901E-3,5C000400,-0724,0836,12086,029.4,045.5,0.218,746.3,01.17,0.508
2017-05-26 01:56:00,1903E-3,5C000400,-0724,0835,12030,029.4,045.5,0.218,746.3,01.17,0.508
2017-05-26 01:57:00,1948E-3,5C000400,-0724,0836,12035,029.4,045.5,0.218,746.3,01.17,0.508
2017-05-26 01:58:00,1969E-3,5C000400,-0724,0835,12173,029.4,045.5,0.218,746.2,01.17,0.508
2017-05-26 01:59:00,2043E-3,5C000400,-0724,0836,12152,029.4,045.5,0.218,746.2,01.17,0.508
2017-05-26 02:00:00,1952E-3,5C000400,-0724,0835,12127,029.4,045.5,0.218,746.3,01.17,0.508
2017-05-26 02:01:00,1856E-3,5C000400,-0724,0835,11906,029.4,045.5,0.218,746.3,01.17,0.508
2017-05-26 02:02:00,2001E-3,5C000400,-0724,0836,12073,029.5,045.5,0.218,746.3,01.17,0.508
2017-05-26 02:03:00,1920E-3,5C000400,-0724,0836,12086,029.5,045.5,0.217,746.2,01.17,0.508
2017-05-26 02:04:00,1822E-3,5C000400,-0724,0835,12182,029.5,045.5,0.218,746.2,01.17,0.508
2017-05-26 02:05:00,1971E-3,5C000400,-0724,0835,12114,029.5,045.5,0.218,746.2,01.17,0.508
2017-05-26 02:06:00,1967E-3,5C000400,-0724,0835,12235,029.5,045.5,0.218,746.3,01.17,0.508
2017-05-26 02:07:00,1869E-3,5C000400,-0724,0835,12024,029.5,045.5,0.217,746.2,01.17,0.508
2017-05-26 02:08:00,1832E-3,5C000400,-0724,0835,12064,029.5,045.5,0.218,746.2,01.17,0.508
2017-05-26 02:09:00,1911E-3,5C000400,-0724,0835,11969,029.5,045.5,0.218,746.2,01.17,0.508
2017-05-26 02:10:00,1906E-3,5C000400,-0724,0835,12228,029.5,045.5,0.218,746.1,01.17,0.508
2017-05-26 02:11:00,1819E-3,5C000400,-0724,0835,12034,029.5,045.5,0.218,746.1,01.17,0.508
2017-05-26 02:12:00,1924E-3,5C000400,-0724,0835,12095,029.6,045.5,0.218,746.2,01.17,0.508
2017-05-26 02:13:00,1958E-3,5C000400,-0724,0836,12163,029.6,045.5,0.217,746.2,01.17,0.508
2017-05-26 02:14:00,1766E-3,5C000400,-0724,0835,12115,029.6,045.5,0.217,746.2,01.17,0.508
2017-05-26 02:15:00,1851E-3,5C000400,-0724,0835,12087,029.6,045.5,0.218,746.2,01.17,0.508
2017-05-26 02:16:00,1981E-3,5C000400,-0724,0835,12142,029.6,045.5,0.217,746.3,01.17,0.508
2017-05-26 02:17:00,1970E-3,5C000400,-0724,0835,12042,029.6,045.5,0.217,746.3,01.17,0.508
2017-05-26 02:18:00,1876E-3,5C000400,-0724,0836,12088,029.6,045.5,0.217,746.3,01.17,0.508
2017-05-26 02:19:00,1858E-3,5C000400,-0724,0836,12013,029.6,045.5,0.217,746.3,01.17,0.508
2017-05-26 02:20:00,1915E-3,5C000400,-0724,0835,11955,029.6,045.5,0.218,746.3,01.17,0.508
2017-05-26 02:21:00,1870E-3,5C000400,-0724,0837,12105,029.6,045.5,0.217,746.2,01.17,0.508
2017-05-26 02:22:00,1822E-3,5C000400,-0724,0835,12060,029.7,045.5,0.217,746.3,01.17,0.508
2017-05-26 02:23:00,2021E-3,5C000400,-0724,0835,12106,029.7,045.5,0.217,746.3,01.17,0.508
2017-05-26 02:24:00,1951E-3,5C000400,-0724,0835,12009,029.7,045.5,0.217,746.3,01.17,0.508
2017-05-26 02:25:00,1863E-3,5C000400,-0724,0836,12121,029.7,045.5,0.217,746.3,01.17,0.508
2017-05-26 02:26:00,1839E-3,5C000400,-0724,0835,12086,029.7,045.5,0.217,746.3,01.17,0.508
2017-05-26 02:27:00,1758E-3,5C000400,-0724,0835,12118,029.7,045.5,0.217,746.3,01.17,0.508
2017-05-26 02:28:00,1885E-3,5C000400,-0724,0835,11026,029.7,045.5,0.217,746.3,01.17,0.508
2017-05-26 02:29:00,1814E-3,5C000400,-0724,0836,12131,029.7,045.5,0.217,746.3,01.17,0.508
2017-05-26 02:30:00,1823E-3,5C000400,-0724,0836,12170,029.7,045.5,0.217,746.3,01.17,0.508
2017-05-26 02:31:00,1924E-3,5C000400,-0724,0836,12113,029.8,045.5,0.217,746.3,01.17,0.508
2017-05-26 02:32:00,1921E-3,5C000400,-0724,0835,12199,029.8,045.5,0.217,746.3,01.17,0.508
2017-05-26 02:33:00,1912E-3,5C000400,-0724,0835,12000,029.8,045.5,0.217,746.3,01.17,0.508
2017-05-26 02:34:00,1845E-3,5C000400,-0724,0835,12026,029.8,045.5,0.217,746.4,01.17,0.508
2017-05-26 02:35:00,1847E-3,5C000400,-0724,0835,12154,029.8,045.5,0.217,746.4,01.17,0.508
2017-05-26 02:36:00,1889E-3,5C000400,-0724,0835,12066,029.8,045.5,0.217,746.4,01.17,0.508
2017-05-26 02:37:00,1806E-3,5C000400,-0724,0835,12147,029.8,045.5,0.217,746.3,01.17,0.508
2017-05-26 02:38:00,1902E-3,5C000400,-0724,0836,12129,029.8,045.5,0.217,746.4,01.17,0.508
2017-05-26 02:39:00,1873E-3,5C000400,-0724,0836,12097,029.8,045.5,0.217,746.4,01.17,0.508
2017-05-26 02:40:00,1914E-3,5C000400,-0724,0836,11982,029.8,045.5,0.217,746.4,01.17,0.508
2017-05-26 02:41:00,1931E-3,5C000400,-0724,0835,12057,029.9,045.5,0.217,746.4,01.17,0.508
2017-05-26 02:42:00,1996E-3,5C000400,-0724,0835,12025,029.9,045.5,0.217,746.4,01.17,0.508
2017-05-26 02:43:00,1912E-3,5C000400,-0724,0836,12155,029.9,045.5,0.217,746.4,01.17,0.508
2017-05-26 02:44:00,1862E-3,5C000400,-0724,0836,12141,029.9,045.5,0.216,746.4,01.17,0.508
2017-05-26 02:45:00,1986E-3,5C000400,-0724,0835,12085,029.9,045.5,0.217,746.4,01.17,0.508
2017-05-26 02:46:00,1948E-3,5C000400,-0724,0835,12095,029.9,045.5,0.217,746.5,01.17,0.508
2017-05-26 02:47:00,1984E-3,5C000400,-0724,0835,11925,029.9,045.5,0.217,746.4,01.17,0.508
2017-05-26 02:48:00,1938E-3,5C000400,-0724,0836,12010,029.9,045.5,0.217,746.5,01.17,0.508
2017-05-26 02:49:00,1913E-3,5C000400,-0724,0836,11939,029.9,045.5,0.217,746.4,01.17,0.508
2017-05-26 02:50:00,1981E-3,5C000400,-0724,0835,12038,029.9,045.5,0.216,746.5,01.17,0.508
2017-05-26 02:51:00,1912E-3,5C000400,-0724,0835,11937,029.9,045.5,0.216,746.5,01.17,0.508
2017-05-26 02:52:00,1872E-3,5C000400,-0724,0836,12224,029.9,045.5,0.217,746.5,01.17,0.508
2017-05-26 02:53:00,1878E-3,5C000400,-0724,0835,12122,030.0,045.5,0.217,746.5,01.17,0.508
2017-05-26 02:54:00,1859E-3,5C000400,-0724,0835,11977,030.0,045.5,0.217,746.5,01.17,0.508
2017-05-26 02:55:00,2070E-3,5C000400,-0724,0836,12090,030.0,045.5,0.217,746.5,01.17,0.508
2017-05-26 02:56:00,1843E-3,5C000400,-0724,0835,11944,030.0,045.5,0.216,746.5,01.17,0.508
2017-05-26 02:57:00,1873E-3,5C000400,-0724,0835,12125,030.0,045.5,0.216,746.5,01.17,0.508
2017-05-26 02:58:00,1997E-3,5C000400,-0724,0835,11991,030.0,045.5,0.216,746.5,01.17,0.508
2017-05-26 02:59:00,1877E-3,5C000400,-0724,0835,12106,030.0,045.5,0.216,746.5,01.17,0.508
2017-05-26 03:00:00,1931E-3,5C000400,-0724,0836,12084,030.0,045.5,0.217,746.5,01.17,0.508
2017-05-26 03:01:00,1927E-3,5C000400,-0724,0836,12151,030.0,045.5,0.216,746.5,01.17,0.508
2017-05-26 03:02:00,1934E-3,5C000400,-0724,0836,12152,030.1,045.5,0.216,746.5,01.17,0.508
2017-05-26 03:03:00,1943E-3,5C000400,-0724,0835,11958,030.1,045.5,0.216,746.5,01.17,0.508
2017-05-26 03:04:00,1969E-3,5C000400,-0724,0835,12041,030.1,045.5,0.216,746.5,01.17,0.508
2017-05-26 03:05:00,1896E-3,5C000400,-0724,0836,11995,030.1,045.5,0.216,746.5,01.17,0.508
2017-05-26 03:06:00,1988E-3,5C000400,-0724,0835,12093,030.1,045.5,0.216,746.5,01.17,0.508
2017-05-26 03:07:00,1961E-3,5C000400,-0724,0835,12137,030.1,045.5,0.216,746.5,01.17,0.508
2017-05-26 03:08:00,1761E-3,5C000400,-0724,0835,12133,030.1,045.5,0.216,746.5,01.17,0.508
2017-05-26 03:09:00,2014E-3,5C000400,-0724,0836,12043,030.1,045.5,0.216,746.5,01.17,0.508
2017-05-26 03:10:00,1793E-3,5C000400,-0724,0836,12098,030.1,045.5,0.217,746.5,01.17,0.508
2017-05-26 03:11:00,1949E-3,5C000400,-0724,0836,12113,030.1,045.5,0.216,746.5,01.17,0.508
2017-05-26 03:12:00,1895E-3,5C000400,-0724,0836,12133,030.1,045.5,0.216,746.5,01.17,0.508
2017-05-26 03:13:00,1994E-3,5C000400,-0724,0835,11961,030.1,045.5,0.216,746.5,01.17,0.508
2017-05-26 03:14:00,1821E-3,5C000400,-0724,0835,12083,030.1,045.5,0.216,746.5,01.17,0.508
2017-05-26 03:15:00,1857E-3,5C000400,-0724,0835,11866,030.2,045.5,0.216,746.5,01.17,0.508
2017-05-26 03:16:00,1957E-3,5C000400,-0724,0835,12086,030.2,045.5,0.216,746.5,01.17,0.508
2017-05-26 03:17:00,1930E-3,5C000400,-0724,0834,12103,030.2,045.5,0.216,746.5,01.17,0.508
2017-05-26 03:18:00,2012E-3,5C000400,-0724,0835,12042,030.2,045.5,0.216,746.5,01.17,0.508
2017-05-26 03:19:00,1978E-3,5C000400,-0724,0835,11899,030.2,045.5,0.216,746.5,01.17,0.508
2017-05-26 03:20:00,1934E-3,5C000400,-0724,0835,12195,030.2,045.5,0.216,746.5,01.17,0.508
2017-05-26 03:21:00,1803E-3,5C000400,-0724,0836,11927,030.2,045.5,0.216,746.5,01.17,0.508
2017-05-26 03:22:00,1795E-3,5C000400,-0724,0836,12085,030.2,045.5,0.216,746.5,01.17,0.508
2017-05-26 03:23:00,2007E-3,5C000400,-0724,0835,12149,030.2,045.5,0.216,746.5,01.17,0.508
2017-05-26 03:24:00,1780E-3,5C000400,-0724,0835,12088,030.2,045.5,0.216,746.5,01.17,0.508
2017-05-26 03:25:00,1910E-3,5C000400,-0724,0837,11971,030.2,045.5,0.216,746.5,01.17,0.508
2017-05-26 03:26:00,1832E-3,5C000400,-0724,0836,10960,030.3,045.5,0.216,746.5,01.17,0.508
2017-05-26 03:27:00,1877E-3,5C000400,-0724,0835,11991,030.3,045.5,0.216,746.5,01.17,0.508
2017-05-26 03:28:00,1979E-3,5C000400,-0724,0835,11995,030.3,045.5,0.216,746.5,01.17,0.508
2017-05-26 03:29:00,1841E-3,5C000400,-0724,0836,12133,030.3,045.5,0.216,746.5,01.17,0.508
2017-05-26 03:30:00,2024E-3,5C000400,-0724,0836,12100,030.3,045.5,0.215,746.5,01.17,0.508
2017-05-26 03:31:00,1916E-3,5C000400,-0724,0835,12046,030.3,045.5,0.215,746.5,01.17,0.508
2017-05-26 03:32:00,1896E-3,5C000400,-0724,0836,12012,030.3,045.5,0.216,746.6,01.17,0.508
2017-05-26 03:33:00,2039E-3,5C000400,-0724,0836,12079,030.3,045.5,0.216,746.6,01.17,0.508
2017-05-26 03:34:00,1931E-3,5C000400,-0724,0836,12211,030.3,045.5,0.216,746.6,01.17,0.508
2017-05-26 03:35:00,1893E-3,5C000400,-0724,0836,12231,030.3,045.5,0.216,746.6,01.17,0.508
2017-05-26 03:36:00,1833E-3,5C000400,-0724,0837,12169,030.3,045.5,0.216,746.6,01.17,0.508
2017-05-26 03:37:00,1983E-3,5C000400,-0724,0836,11989,030.4,045.5,0.216,746.6,01.17,0.508
2017-05-26 03:38:00,1974E-3,5C000400,-0724,0836,12049,030.4,045.5,0.216,746.6,01.17,0.508
2017-05-26 03:39:00,1967E-3,5C000400,-0724,0837,10961,030.4,045.5,0.215,746.6,01.17,0.508
2017-05-26 03:40:00,2016E-3,5C000400,-0724,0836,11012,030.4,045.5,0.215,746.5,01.17,0.508
2017-05-26 03:41:00,1920E-3,5C000400,-0724,0837,12149,030.4,045.5,0.215,746.6,01.17,0.508
2017-05-26 03:42:00,1763E-3,5C000400,-0724,0837,12085,030.4,045.5,0.216,746.6,01.17,0.508
2017-05-26 03:43:00,1882E-3,5C000400,-0724,0837,12273,030.4,045.5,0.216,746.6,01.17,0.508
2017-05-26 03:44:00,1812E-3,5C000400,-0724,0840,12269,030.4,045.6,0.216,746.6,01.17,0.508
2017-05-26 03:45:00,1859E-3,5C000400,-0724,0836,12105,030.4,045.5,0.216,746.6,01.17,0.508
2017-05-26 03:46:00,1773E-3,5C000400,-0724,0836,12211,030.4,045.5,0.216,746.6,01.17,0.508
2017-05-26 03:47:00,1871E-3,5C000400,-0724,0836,12014,030.4,045.5,0.216,746.6,01.17,0.508
2017-05-26 03:48:00,1964E-3,5C000400,-0724,0835,12030,030.4,045.5,0.215,746.6,01.17,0.508
2017-05-26 03:49:00,2028E-3,5C000400,-0724,0836,12012,030.5,045.5,0.215,746.6,01.17,0.508
2017-05-26 03:50:00,1872E-3,5C000400,-0724,0836,12150,030.5,045.5,0.215,746.5,01.17,0.508
2017-05-26 03:51:00,1862E-3,5C000400,-0724,0834,12090,030.5,045.6,0.215,746.6,01.17,0.508
2017-05-26 03:52:00,1881E-3,5C000400,-0724,0836,11922,030.5,045.6,0.215,746.6,01.17,0.508
2017-05-26 03:53:00,2007E-3,5C000400,-0724,0836,12233,030.5,045.5,0.215,746.6,01.17,0.508
2017-05-26 03:54:00,2062E-3,5C000400,-0724,0836,12123,030.5,045.5,0.215,746.6,01.17,0.508
2017-05-26 03:55:00,1758E-3,5C000400,-0724,0835,11991,030.5,045.5,0.215,746.6,01.17,0.508
2017-05-26 03:56:00,2013E-3,5C000400,-0724,0836,12120,030.5,045.5,0.215,746.6,01.17,0.508
2017-05-26 03:57:00,1813E-3,5C000400,-0724,0834,12059,030.5,045.5,0.215,746.6,01.17,0.508
2017-05-26 03:58:00,1819E-3,5C000400,-0724,0836,10959,030.5,045.5,0.216,746.6,01.17,0.508
2017-05-26 03:59:00,1927E-3,5C000400,-0724,0835,12128,030.5,045.5,0.215,746.6,01.17,0.508
2017-05-26 04:00:00,2034E-3,5C000400,-0724,0836,12032,030.5,045.5,0.215,746.6,01.17,0.508
2017-05-26 04:01:00,1925E-3,5C000400,-0724,0835,12059,030.5,045.5,0.215,746.6,01.17,0.508
2017-05-26 04:02:00,1955E-3,5C000400,-0724,0835,12144,030.5,045.5,0.215,746.6,01.17,0.508
2017-05-26 04:03:00,2030E-3,5C000400,-0724,0835,12023,030.5,045.5,0.215,746.6,01.17,0.508
2017-05-26 04:04:00,1919E-3,5C000400,-0724,0835,12133,030.5,045.5,0.215,746.7,01.17,0.508
2017-05-26 04:05:00,1888E-3,5C000400,-0724,0835,12064,030.5,045.5,0.215,746.7,01.17,0.508
2017-05-26 04:06:00,1898E-3,5C000400,-0724,0835,12184,030.6,045.6,0.215,746.6,01.17,0.508
2017-05-26 04:07:00,1859E-3,5C000400,-0724,0836,12120,030.6,045.5,0.215,746.6,01.17,0.508
2017-05-26 04:08:00,1917E-3,5C000400,-0724,0835,12056,030.6,045.5,0.215,746.6,01.17,0.508
2017-05-26 04:09:00,1826E-3,5C000400,-0724,0836,12185,030.6,045.5,0.215,746.6,01.17,0.508
2017-05-26 04:10:00,1959E-3,5C000400,-0724,0834,12009,030.6,045.5,0.215,746.5,01.17,0.508
2017-05-26 04:11:00,1996E-3,5C000400,-0724,0834,12053,030.6,045.6,0.216,746.5,01.17,0.508
2017-05-26 04:12:00,1824E-3,5C000400,-0724,0834,11980,030.6,045.5,0.215,746.5,01.17,0.508
2017-05-26 04:13:00,1872E-3,5C000400,-0724,0835,12129,030.6,045.5,0.215,746.6,01.17,0.508
2017-05-26 04:14:00,1918E-3,5C000400,-0724,0834,12060,030.6,045.6,0.215,746.6,01.17,0.508
2017-05-26 04:15:00,1960E-3,5C000400,-0724,0835,11986,030.6,045.5,0.215,746.6,01.17,0.508
2017-05-26 04:16:00,2018E-3,5C000400,-0724,0834,12068,030.6,045.5,0.215,746.6,01.17,0.508
2017-05-26 04:17:00,1862E-3,5C000400,-0724,0835,12068,030.6,045.5,0.215,746.6,01.17,0.508
2017-05-26 04:18:00,1891E-3,5C000400,-0724,0835,12080,030.6,045.5,0.215,746.6,01.17,0.508
2017-05-26 04:19:00,1967E-3,5C000400,-0724,0835,12081,030.6,045.5,0.215,746.6,01.17,0.508
2017-05-26 04:20:00,2069E-3,5C000400,-0724,0834,12030,030.6,045.5,0.215,746.6,01.17,0.508